This is the latest recevied weather packets stored in our database for station/object I2HLY-4. If no packets are shown the sender has not sent any weather packets the latest 10 day(s).
| Time | Temp. | Humidity | Pressure | Rain* | Wind** | Luminosity | Snow |
|---|---|---|---|---|---|---|---|
| 1777978939 | 8.89° C | 93% | 1014.5 hPa | 1.02 mm | - | - | - |
| 1777978042 | 8.89° C | 92% | 1014.4 hPa | 1.02 mm | - | - | - |
| 1777977143 | 8.89° C | 93% | 1014.5 hPa | 2.03 mm | - | - | - |
| 1777976249 | 8.89° C | 92% | 1014.6 hPa | 2.03 mm | - | - | - |
| 1777975331 | 8.89° C | 88% | 1014.4 hPa | 3.05 mm | - | - | - |
| 1777974435 | 8.89° C | 88% | 1014.2 hPa | 5.08 mm | - | - | - |
| 1777973537 | 8.33° C | 88% | 1014.2 hPa | 6.1 mm | - | - | - |
| 1777972635 | 8.33° C | 89% | 1014.2 hPa | 11.94 mm | - | - | - |
| 1777971737 | 8.33° C | 89% | 1014.3 hPa | 12.95 mm | - | - | - |
| 1777970837 | 8.33° C | 91% | 1014.3 hPa | 12.95 mm | - | - | - |
| 1777969939 | 8.33° C | 92% | 1014.4 hPa | 11.94 mm | - | - | - |
| 1777969039 | 8.33° C | 93% | 1014.7 hPa | 7.11 mm | - | - | - |
| 1777968137 | 8.33° C | 93% | 1014.9 hPa | 5.08 mm | - | - | - |
| 1777967243 | 8.89° C | 92% | 1014.9 hPa | 4.06 mm | - | - | - |
| 1777966344 | 8.89° C | 92% | 1014.8 hPa | 3.05 mm | - | - | - |
| 1777965444 | 8.89° C | 91% | 1014.7 hPa | 2.03 mm | - | - | - |
| 1777964548 | 8.89° C | 90% | 1014.5 hPa | 1.02 mm | - | - | - |
| 1777963651 | 8.89° C | 88% | 1014.5 hPa | 1.02 mm | - | - | - |
| 1777962737 | 9.44° C | 84% | 1014.6 hPa | 0 mm | - | - | - |
| 1777961838 | 9.44° C | 83% | 1014.6 hPa | 0 mm | - | - | - |
| 1777960936 | 8.89° C | 84% | 1014.4 hPa | 0 mm | - | - | - |
| 1777960039 | 8.33° C | 84% | 1014.3 hPa | 0 mm | - | - | - |
| 1777959139 | 8.89° C | 82% | 1014.5 hPa | 0 mm | - | - | - |
| 1777958245 | 9.44° C | 77% | 1014.3 hPa | 0 mm | - | - | - |
| 1777957344 | 9.44° C | 70% | 1014.4 hPa | 0 mm | - | - | - |
* Rain latest hour (hover to see other rain measurements)
** Current wind speed in m/s (hover to see current wind gust speed)